PUA2401 SUMU-SULS

Flight info

Callsign PUA2401
Flight time 0h 13m
Altitude 9000
Route LDS
Aircraft B788/H-SDE1E2E3FGHIJ2J3J4J5M1RWXY/LB1D1

Departure

Time 2026-04-25 00:39
Airport Carrasco General Cesáreo L. Berisso International Airport (SUMU)

Arrival

Time 2026-04-25 00:52
Airport Capitan Corbeta CA Curbelo International Airport (SULS)
Time Latitude Longitude Altitude Speed Heading
2026-04-25 00:25 -34.83872 -56.02460 60 ft 0 kts
2026-04-25 00:34 -34.83887 -56.02460 58 ft 4 kts
2026-04-25 00:34 -34.83913 -56.02461 59 ft 4 kts 351°
2026-04-25 00:35 -34.83936 -56.02449 58 ft 4 kts 309°
2026-04-25 00:35 -34.83947 -56.02423 58 ft 3 kts 272°
2026-04-25 00:35 -34.83947 -56.02419 58 ft 4 kts 271°
2026-04-25 00:37 -34.83946 -56.02442 59 ft 6 kts 271°
2026-04-25 00:37 -34.83944 -56.02516 63 ft 12 kts 273°
2026-04-25 00:37 -34.83949 -56.02635 65 ft 17 kts 262°
2026-04-25 00:37 -34.83976 -56.02747 63 ft 9 kts 274°
2026-04-25 00:38 -34.83927 -56.02814 61 ft 12 kts 325°
2026-04-25 00:38 -34.83861 -56.02846 70 ft 9 kts 349°
2026-04-25 00:38 -34.83804 -56.02853 87 ft 9 kts 355°
2026-04-25 00:38 -34.83721 -56.02851 93 ft 14 kts 17°
2026-04-25 00:39 -34.83607 -56.02702 96 ft 55 kts 53°
2026-04-25 00:39 -34.83167 -56.01971 94 ft 158 kts 54°
2026-04-25 00:39 -34.82523 -56.00711 1115 ft 178 kts 70°
2026-04-25 00:39 -34.82398 -55.99251 2680 ft 176 kts 91°
2026-04-25 00:40 -34.82532 -55.97631 3425 ft 209 kts 96°
2026-04-25 00:40 -34.82636 -55.95733 4104 ft 240 kts 92°
2026-04-25 00:40 -34.82691 -55.93619 4996 ft 253 kts 92°
2026-04-25 00:40 -34.82764 -55.91469 6138 ft 261 kts 92°
2026-04-25 00:41 -34.82863 -55.89166 7306 ft 276 kts 93°
2026-04-25 00:41 -34.82981 -55.86793 8615 ft 288 kts 96°
2026-04-25 00:41 -34.83317 -55.84340 9003 ft 298 kts 102°
2026-04-25 00:41 -34.83757 -55.81959 8984 ft 281 kts 102°
2026-04-25 00:42 -34.84120 -55.79630 8989 ft 279 kts 99°
2026-04-25 00:42 -34.84430 -55.77305 8991 ft 277 kts 99°
2026-04-25 00:42 -34.84748 -55.74992 8992 ft 277 kts 100°
2026-04-25 00:42 -34.85081 -55.72683 8992 ft 277 kts 100°
2026-04-25 00:43 -34.85416 -55.70368 8993 ft 278 kts 100°
2026-04-25 00:43 -34.85736 -55.68115 8731 ft 269 kts 100°
2026-04-25 00:43 -34.86049 -55.65904 8368 ft 261 kts 100°
2026-04-25 00:43 -34.86353 -55.63755 8029 ft 253 kts 100°
2026-04-25 00:44 -34.86649 -55.61668 7711 ft 247 kts 100°
2026-04-25 00:44 -34.86937 -55.59635 7392 ft 241 kts 100°
2026-04-25 00:44 -34.87219 -55.57641 7084 ft 236 kts 100°
2026-04-25 00:44 -34.87495 -55.55688 6775 ft 232 kts 100°
2026-04-25 00:45 -34.87766 -55.53764 6463 ft 229 kts 100°
2026-04-25 00:45 -34.88034 -55.51860 6186 ft 226 kts 100°
2026-04-25 00:45 -34.88300 -55.49972 5893 ft 227 kts 100°
2026-04-25 00:45 -34.88567 -55.48073 5599 ft 227 kts 100°
2026-04-25 00:46 -34.88829 -55.46205 5298 ft 225 kts 99°
2026-04-25 00:46 -34.89091 -55.44334 4999 ft 223 kts 99°
2026-04-25 00:46 -34.89608 -55.40642 4411 ft 219 kts 100°
2026-04-25 00:47 -34.89863 -55.38817 4127 ft 217 kts 99°
2026-04-25 00:47 -34.90115 -55.37007 3823 ft 216 kts 99°
2026-04-25 00:47 -34.90368 -55.35194 3506 ft 217 kts 99°
2026-04-25 00:47 -34.90614 -55.33425 3379 ft 207 kts 99°
2026-04-25 00:48 -34.90832 -55.31720 3257 ft 199 kts 96°
2026-04-25 00:48 -34.90848 -55.30061 3140 ft 200 kts 83°
2026-04-25 00:48 -34.90501 -55.28341 2921 ft 208 kts 72°
2026-04-25 00:48 -34.90037 -55.26727 2663 ft 196 kts 70°
2026-04-25 00:49 -34.89623 -55.25227 2381 ft 181 kts 71°
2026-04-25 00:49 -34.89245 -55.23770 2142 ft 178 kts 72°
2026-04-25 00:49 -34.88887 -55.22377 1893 ft 171 kts 72°
2026-04-25 00:49 -34.88533 -55.21006 1688 ft 168 kts 72°
2026-04-25 00:50 -34.88181 -55.19650 1453 ft 167 kts 72°
2026-04-25 00:50 -34.87843 -55.18345 1227 ft 150 kts 72°
2026-04-25 00:50 -34.87549 -55.17211 1037 ft 136 kts 72°
2026-04-25 00:50 -34.87269 -55.16131 849 ft 132 kts 72°
2026-04-25 00:51 -34.86994 -55.15074 683 ft 130 kts 72°
2026-04-25 00:51 -34.86723 -55.14024 514 ft 129 kts 72°
2026-04-25 00:51 -34.86450 -55.12986 367 ft 129 kts 72°
2026-04-25 00:51 -34.86187 -55.11955 230 ft 127 kts 73°
2026-04-25 00:52 -34.85925 -55.10924 113 ft 126 kts 71°
2026-04-25 00:52 -34.85679 -55.10041 107 ft 94 kts 73°
2026-04-25 00:52 -34.85552 -55.09572 108 ft 26 kts 72°
2026-04-25 00:52 -34.85531 -55.09428 109 ft 8 kts 118°
2026-04-25 00:53 -34.85595 -55.09397 109 ft 17 kts 171°
2026-04-25 00:53 -34.85694 -55.09428 108 ft 16 kts 237°
2026-04-25 00:53 -34.85737 -55.09595 107 ft 22 kts 253°
2026-04-25 00:53 -34.85780 -55.09761 107 ft 13 kts 252°
2026-04-25 00:54 -34.85812 -55.09832 106 ft 5 kts 214°
2026-04-25 00:54 -34.85862 -55.09833 106 ft 9 kts 175°
2026-04-25 00:54 -34.85902 -55.09877 106 ft 13 kts 242°
2026-04-25 00:54 -34.85920 -55.09942 106 ft 3 kts 237°
2026-04-25 00:55 -34.85936 -55.09950 105 ft 4 kts 200°
2026-04-25 00:55 -34.85961 -55.09948 105 ft 2 kts 167°
2026-04-25 00:55 -34.85965 -55.09946 105 ft 0 kts 162°